Index of /20260422/WXO-DD/model_gdps/15km/00/201
Name Last modified Size Description
Parent Directory -
20260422T00Z_MSC_GDPS_AirTemp_AGL-120m_LatLon0.15_PT201H.grib2 2026-04-22 04:42 909K
20260422T00Z_MSC_GDPS_AirTemp_AGL-2m_LatLon0.15_PT201H.grib2 2026-04-22 04:42 1.0M
20260422T00Z_MSC_GDPS_AirTemp_AGL-40m_LatLon0.15_PT201H.grib2 2026-04-22 04:42 811K
20260422T00Z_MSC_GDPS_AirTemp_AGL-80m_LatLon0.15_PT201H.grib2 2026-04-22 04:42 800K
20260422T00Z_MSC_GDPS_AirTemp_IsbL-0001_LatLon0.15_PT201H.grib2 2026-04-22 04:42 708K
20260422T00Z_MSC_GDPS_AirTemp_IsbL-0005_LatLon0.15_PT201H.grib2 2026-04-22 04:42 685K
20260422T00Z_MSC_GDPS_AirTemp_IsbL-0500_LatLon0.15_PT201H.grib2 2026-04-22 04:42 1.0M
20260422T00Z_MSC_GDPS_AirTemp_IsbL-0700_LatLon0.15_PT201H.grib2 2026-04-22 04:42 960K
20260422T00Z_MSC_GDPS_AirTemp_IsbL-0850_LatLon0.15_PT201H.grib2 2026-04-22 04:42 1.2M
20260422T00Z_MSC_GDPS_AirTemp_IsbL-0925_LatLon0.15_PT201H.grib2 2026-04-22 04:42 1.1M
20260422T00Z_MSC_GDPS_AirTemp_IsbL-1000_LatLon0.15_PT201H.grib2 2026-04-22 04:42 1.1M
20260422T00Z_MSC_GDPS_Albedo_Sfc_LatLon0.15_PT201H.grib2 2026-04-22 04:42 244K
20260422T00Z_MSC_GDPS_ConvectivePrecip-Accum_Sfc_LatLon0.15_PT201H.grib2 2026-04-22 04:42 3.9M
20260422T00Z_MSC_GDPS_DewPointDepression_AGL-2m_LatLon0.15_PT201H.grib2 2026-04-22 04:42 760K
20260422T00Z_MSC_GDPS_DewPointDepression_IsbL-0500_LatLon0.15_PT201H.grib2 2026-04-22 04:42 1.0M
20260422T00Z_MSC_GDPS_DewPointDepression_IsbL-0700_LatLon0.15_PT201H.grib2 2026-04-22 04:42 1.1M
20260422T00Z_MSC_GDPS_DewPointDepression_IsbL-0850_LatLon0.15_PT201H.grib2 2026-04-22 04:42 1.2M
20260422T00Z_MSC_GDPS_DewPointDepression_IsbL-0925_LatLon0.15_PT201H.grib2 2026-04-22 04:42 1.0M
20260422T00Z_MSC_GDPS_DewPointDepression_IsbL-1000_LatLon0.15_PT201H.grib2 2026-04-22 04:42 1.0M
20260422T00Z_MSC_GDPS_DewPoint_AGL-2m_LatLon0.15_PT201H.grib2 2026-04-22 04:42 611K
20260422T00Z_MSC_GDPS_DownwardLongwaveRadiationFlux-Accum_Sfc_LatLon0.15_PT201H.grib2 2026-04-22 04:42 711K
20260422T00Z_MSC_GDPS_DownwardShortwaveRadiationFlux-Accum_Sfc_LatLon0.15_PT201H.grib2 2026-04-22 04:42 899K
20260422T00Z_MSC_GDPS_FreezingRain-Accum_Sfc_LatLon0.15_PT201H.grib2 2026-04-22 04:42 524K
20260422T00Z_MSC_GDPS_GeopotentialHeight_IsbL-0001_LatLon0.15_PT201H.grib2 2026-04-22 04:42 387K
20260422T00Z_MSC_GDPS_GeopotentialHeight_IsbL-0005_LatLon0.15_PT201H.grib2 2026-04-22 04:42 497K
20260422T00Z_MSC_GDPS_GeopotentialHeight_IsbL-0500_LatLon0.15_PT201H.grib2 2026-04-22 04:42 535K
20260422T00Z_MSC_GDPS_GeopotentialHeight_IsbL-0700_LatLon0.15_PT201H.grib2 2026-04-22 04:42 693K
20260422T00Z_MSC_GDPS_GeopotentialHeight_IsbL-0850_LatLon0.15_PT201H.grib2 2026-04-22 04:42 718K
20260422T00Z_MSC_GDPS_GeopotentialHeight_IsbL-0925_LatLon0.15_PT201H.grib2 2026-04-22 04:42 737K
20260422T00Z_MSC_GDPS_GeopotentialHeight_IsbL-1000_LatLon0.15_PT201H.grib2 2026-04-22 04:42 796K
20260422T00Z_MSC_GDPS_IcePellets-Accum_Sfc_LatLon0.15_PT201H.grib2 2026-04-22 04:42 200K
20260422T00Z_MSC_GDPS_LatentHeatNetFlux_Sfc_LatLon0.15_PT201H.grib2 2026-04-22 04:42 558K
20260422T00Z_MSC_GDPS_NetLongwaveRadiationFlux-Accum_Sfc_LatLon0.15_PT201H.grib2 2026-04-22 04:42 892K
20260422T00Z_MSC_GDPS_NetShortwaveRadiationFlux-Accum_Sfc_LatLon0.15_PT201H.grib2 2026-04-22 04:42 877K
20260422T00Z_MSC_GDPS_O3MixingRatio_LatLon0.15_PT201H.grib2 2026-04-22 05:00 2.2M
20260422T00Z_MSC_GDPS_O3_EAtm_LatLon0.15_PT201H.grib2 2026-04-22 05:00 2.4M
20260422T00Z_MSC_GDPS_PlanetaryBoundaryLayerHeight_Sfc_LatLon0.15_PT201H.grib2 2026-04-22 04:42 2.5M
20260422T00Z_MSC_GDPS_Precip-Accum_Sfc_LatLon0.15_PT201H.grib2 2026-04-22 04:42 5.1M
20260422T00Z_MSC_GDPS_PrecipRate_Sfc_LatLon0.15_PT201H.grib2 2026-04-22 04:42 3.3M
20260422T00Z_MSC_GDPS_Pressure_MSL_LatLon0.15_PT201H.grib2 2026-04-22 04:42 828K
20260422T00Z_MSC_GDPS_Pressure_Sfc_LatLon0.15_PT201H.grib2 2026-04-22 04:42 1.1M
20260422T00Z_MSC_GDPS_RadiativeTemp_Sfc_LatLon0.15_PT201H.grib2 2026-04-22 04:42 499K
20260422T00Z_MSC_GDPS_Rain-Accum_Sfc_LatLon0.15_PT201H.grib2 2026-04-22 04:42 4.2M
20260422T00Z_MSC_GDPS_RelativeHumidity_AGL-2m_LatLon0.15_PT201H.grib2 2026-04-22 04:42 1.0M
20260422T00Z_MSC_GDPS_Runoff-Accum_Sfc_LatLon0.15_PT201H.grib2 2026-04-22 04:42 126K
20260422T00Z_MSC_GDPS_SensibleHeatNetFlux_Sfc_LatLon0.15_PT201H.grib2 2026-04-22 04:42 660K
20260422T00Z_MSC_GDPS_Snow-Accum_Sfc_LatLon0.15_PT201H.grib2 2026-04-22 04:42 2.0M
20260422T00Z_MSC_GDPS_SnowDepth_Sfc_LatLon0.15_PT201H.grib2 2026-04-22 04:42 1.8M
20260422T00Z_MSC_GDPS_SoilTemp_DBS-0to10cm_LatLon0.15_PT201H.grib2 2026-04-22 04:42 511K
20260422T00Z_MSC_GDPS_SoilTemp_Sfc_LatLon0.15_PT201H.grib2 2026-04-22 04:42 591K
20260422T00Z_MSC_GDPS_SoilVolumetricWaterContent_DBS-0to10cm_LatLon0.15_PT201H.grib2 2026-04-22 04:42 583K
20260422T00Z_MSC_GDPS_SoilVolumetricWaterContent_DBS-0to1cm_LatLon0.15_PT201H.grib2 2026-04-22 04:42 655K
20260422T00Z_MSC_GDPS_SpecificHumidity_AGL-120m_LatLon0.15_PT201H.grib2 2026-04-22 04:42 1.1M
20260422T00Z_MSC_GDPS_SpecificHumidity_AGL-2m_LatLon0.15_PT201H.grib2 2026-04-22 04:42 1.2M
20260422T00Z_MSC_GDPS_SpecificHumidity_AGL-40m_LatLon0.15_PT201H.grib2 2026-04-22 04:42 1.1M
20260422T00Z_MSC_GDPS_SpecificHumidity_AGL-80m_LatLon0.15_PT201H.grib2 2026-04-22 04:42 1.1M
20260422T00Z_MSC_GDPS_SpecificHumidity_IsbL-0001_LatLon0.15_PT201H.grib2 2026-04-22 04:42 1.1M
20260422T00Z_MSC_GDPS_SpecificHumidity_IsbL-0005_LatLon0.15_PT201H.grib2 2026-04-22 04:42 1.3M
20260422T00Z_MSC_GDPS_SpecificHumidity_IsbL-0500_LatLon0.15_PT201H.grib2 2026-04-22 04:42 1.4M
20260422T00Z_MSC_GDPS_SpecificHumidity_IsbL-0700_LatLon0.15_PT201H.grib2 2026-04-22 04:42 1.6M
20260422T00Z_MSC_GDPS_SpecificHumidity_IsbL-0850_LatLon0.15_PT201H.grib2 2026-04-22 04:42 1.9M
20260422T00Z_MSC_GDPS_SpecificHumidity_IsbL-0925_LatLon0.15_PT201H.grib2 2026-04-22 04:42 1.6M
20260422T00Z_MSC_GDPS_SpecificHumidity_IsbL-1000_LatLon0.15_PT201H.grib2 2026-04-22 04:42 1.5M
20260422T00Z_MSC_GDPS_SpecificHumidity_Sfc_LatLon0.15_PT201H.grib2 2026-04-22 04:42 679K
20260422T00Z_MSC_GDPS_Thickness_IsbL-0850to0700_LatLon0.15_PT201H.grib2 2026-04-22 04:42 472K
20260422T00Z_MSC_GDPS_Thickness_IsbL-1000to0500_LatLon0.15_PT201H.grib2 2026-04-22 04:42 380K
20260422T00Z_MSC_GDPS_Thickness_IsbL-1000to0850_LatLon0.15_PT201H.grib2 2026-04-22 04:42 496K
20260422T00Z_MSC_GDPS_TotalCloudCover_Sfc_LatLon0.15_PT201H.grib2 2026-04-22 04:42 840K
20260422T00Z_MSC_GDPS_UVIndex-ClearSky_Sfc_LatLon0.15_PT201H.grib2 2026-04-22 05:00 1.1M
20260422T00Z_MSC_GDPS_UVIndex_Sfc_LatLon0.15_PT201H.grib2 2026-04-22 05:00 1.5M
20260422T00Z_MSC_GDPS_UpwardLongwaveRadiationFlux_NTAtm_LatLon0.15_PT201H.grib2 2026-04-22 04:42 844K
20260422T00Z_MSC_GDPS_VerticalVelocity_IsbL-0500_LatLon0.15_PT201H.grib2 2026-04-22 04:42 1.0M
20260422T00Z_MSC_GDPS_VerticalVelocity_IsbL-0700_LatLon0.15_PT201H.grib2 2026-04-22 04:42 1.1M
20260422T00Z_MSC_GDPS_VerticalVelocity_IsbL-0850_LatLon0.15_PT201H.grib2 2026-04-22 04:42 1.3M
20260422T00Z_MSC_GDPS_WindDir_AGL-10m_LatLon0.15_PT201H.grib2 2026-04-22 04:42 1.3M
20260422T00Z_MSC_GDPS_WindDir_AGL-120m_LatLon0.15_PT201H.grib2 2026-04-22 04:42 1.3M
20260422T00Z_MSC_GDPS_WindDir_AGL-40m_LatLon0.15_PT201H.grib2 2026-04-22 04:42 1.4M
20260422T00Z_MSC_GDPS_WindDir_AGL-80m_LatLon0.15_PT201H.grib2 2026-04-22 04:42 1.4M
20260422T00Z_MSC_GDPS_WindDir_IsbL-0001_LatLon0.15_PT201H.grib2 2026-04-22 04:42 662K
20260422T00Z_MSC_GDPS_WindDir_IsbL-0005_LatLon0.15_PT201H.grib2 2026-04-22 04:42 790K
20260422T00Z_MSC_GDPS_WindDir_IsbL-0500_LatLon0.15_PT201H.grib2 2026-04-22 04:42 1.3M
20260422T00Z_MSC_GDPS_WindDir_IsbL-0700_LatLon0.15_PT201H.grib2 2026-04-22 04:42 1.6M
20260422T00Z_MSC_GDPS_WindDir_IsbL-0850_LatLon0.15_PT201H.grib2 2026-04-22 04:42 1.9M
20260422T00Z_MSC_GDPS_WindDir_IsbL-0925_LatLon0.15_PT201H.grib2 2026-04-22 04:42 2.0M
20260422T00Z_MSC_GDPS_WindDir_IsbL-1000_LatLon0.15_PT201H.grib2 2026-04-22 04:42 2.0M
20260422T00Z_MSC_GDPS_WindGust-Max_AGL-10m_LatLon0.15_PT201H.grib2 2026-04-22 04:42 1.8M
20260422T00Z_MSC_GDPS_WindGust-Min_AGL-10m_LatLon0.15_PT201H.grib2 2026-04-22 04:42 2.1M
20260422T00Z_MSC_GDPS_WindGust_AGL-10m_LatLon0.15_PT201H.grib2 2026-04-22 04:42 2.1M
20260422T00Z_MSC_GDPS_WindSpeed_AGL-10m_LatLon0.15_PT201H.grib2 2026-04-22 04:42 1.1M
20260422T00Z_MSC_GDPS_WindSpeed_AGL-120m_LatLon0.15_PT201H.grib2 2026-04-22 04:42 1.2M
20260422T00Z_MSC_GDPS_WindSpeed_AGL-40m_LatLon0.15_PT201H.grib2 2026-04-22 04:42 1.2M
20260422T00Z_MSC_GDPS_WindSpeed_AGL-80m_LatLon0.15_PT201H.grib2 2026-04-22 04:42 1.2M
20260422T00Z_MSC_GDPS_WindSpeed_IsbL-0001_LatLon0.15_PT201H.grib2 2026-04-22 04:42 636K
20260422T00Z_MSC_GDPS_WindSpeed_IsbL-0005_LatLon0.15_PT201H.grib2 2026-04-22 04:42 603K
20260422T00Z_MSC_GDPS_WindSpeed_IsbL-0500_LatLon0.15_PT201H.grib2 2026-04-22 04:42 1.1M
20260422T00Z_MSC_GDPS_WindSpeed_IsbL-0700_LatLon0.15_PT201H.grib2 2026-04-22 04:42 1.5M
20260422T00Z_MSC_GDPS_WindSpeed_IsbL-0850_LatLon0.15_PT201H.grib2 2026-04-22 04:42 1.4M
20260422T00Z_MSC_GDPS_WindSpeed_IsbL-0925_LatLon0.15_PT201H.grib2 2026-04-22 04:42 1.8M
20260422T00Z_MSC_GDPS_WindSpeed_IsbL-1000_LatLon0.15_PT201H.grib2 2026-04-22 04:42 1.9M
20260422T00Z_MSC_GDPS_WindU_AGL-10m_LatLon0.15_PT201H.grib2 2026-04-22 04:42 1.3M
20260422T00Z_MSC_GDPS_WindU_AGL-120m_LatLon0.15_PT201H.grib2 2026-04-22 04:42 1.0M
20260422T00Z_MSC_GDPS_WindU_AGL-40m_LatLon0.15_PT201H.grib2 2026-04-22 04:42 971K
20260422T00Z_MSC_GDPS_WindU_AGL-80m_LatLon0.15_PT201H.grib2 2026-04-22 04:42 1.0M
20260422T00Z_MSC_GDPS_WindU_IsbL-0001_LatLon0.15_PT201H.grib2 2026-04-22 04:42 497K
20260422T00Z_MSC_GDPS_WindU_IsbL-0005_LatLon0.15_PT201H.grib2 2026-04-22 04:42 684K
20260422T00Z_MSC_GDPS_WindU_IsbL-0500_LatLon0.15_PT201H.grib2 2026-04-22 04:42 1.1M
20260422T00Z_MSC_GDPS_WindU_IsbL-0700_LatLon0.15_PT201H.grib2 2026-04-22 04:42 1.2M
20260422T00Z_MSC_GDPS_WindU_IsbL-0850_LatLon0.15_PT201H.grib2 2026-04-22 04:42 1.4M
20260422T00Z_MSC_GDPS_WindU_IsbL-0925_LatLon0.15_PT201H.grib2 2026-04-22 04:42 1.5M
20260422T00Z_MSC_GDPS_WindU_IsbL-1000_LatLon0.15_PT201H.grib2 2026-04-22 04:42 1.4M
20260422T00Z_MSC_GDPS_WindV_AGL-10m_LatLon0.15_PT201H.grib2 2026-04-22 04:42 1.6M
20260422T00Z_MSC_GDPS_WindV_AGL-120m_LatLon0.15_PT201H.grib2 2026-04-22 04:42 1.0M
20260422T00Z_MSC_GDPS_WindV_AGL-40m_LatLon0.15_PT201H.grib2 2026-04-22 04:42 971K
20260422T00Z_MSC_GDPS_WindV_AGL-80m_LatLon0.15_PT201H.grib2 2026-04-22 04:42 1.0M
20260422T00Z_MSC_GDPS_WindV_IsbL-0001_LatLon0.15_PT201H.grib2 2026-04-22 04:42 705K
20260422T00Z_MSC_GDPS_WindV_IsbL-0005_LatLon0.15_PT201H.grib2 2026-04-22 04:42 757K
20260422T00Z_MSC_GDPS_WindV_IsbL-0500_LatLon0.15_PT201H.grib2 2026-04-22 04:42 1.1M
20260422T00Z_MSC_GDPS_WindV_IsbL-0700_LatLon0.15_PT201H.grib2 2026-04-22 04:42 1.2M
20260422T00Z_MSC_GDPS_WindV_IsbL-0850_LatLon0.15_PT201H.grib2 2026-04-22 04:42 1.4M
20260422T00Z_MSC_GDPS_WindV_IsbL-0925_LatLon0.15_PT201H.grib2 2026-04-22 04:42 1.5M
20260422T00Z_MSC_GDPS_WindV_IsbL-1000_LatLon0.15_PT201H.grib2 2026-04-22 04:42 1.7M